Weather in Staraya Kriusha

Russia / Voronezh Oblast     50°12′23″N   41°09′36″E
temp.,
°C
wind,
m/s
gust,
m/s
humid.,
%
clouds,
%
prec.,
mm/h
press.,
hPa
HPBL,
m
19 january, wed
wed1900:00−6ssw499735 0.3 1009134
03:00−11s359871 0.3 101250
06:00−11ssw389886 0.0 101299
09:00−15sw2210099 0.0 101432
12:00−9ssw349690 0.1 1015153
15:00−8sw249669 0.1 1016134
18:00−13sw119993 0.1 10179
21:00−14wnw1198100 0.1 101811
20 january, thu
thu2000:00−17nw2210083 0.1 10199
03:00−20nw11100100 0.1 10209
06:00−18nw119959 0.1 10209
09:00−19ssw1110080 0.1 102011
12:00−13ssw239461 0.0 1020118
15:00−12ssw229637 0.0 101943
18:00−17sse3310091 0.0 101921
21:00−17sse389859 0.0 101986
21 january, fri
fri2100:00−17s389737 0.0 1018101
03:00−15sse4896100 0.0 1016116
06:00−10sse61493100 0.0 1013260
09:00−8sse81895100 0.2 1012410
12:00−4sse81695100 2.0 1010549
15:00−2sse71494100 2.4 1008500
18:000ssw61198100 0.6 1008892
21:00−4wsw51191100 1.3 1010353
22 january, sat
sat2200:00−10sw489751 0.0 1012102
03:00−12s379761 0.0 101377
06:00−14s359859 0.0 101352
09:00−13s359737 0.0 101571
12:00−8sse37935 0.0 1015200
15:00−7sse36945 0.0 1015126
18:00−13sse229753 0.0 101719
21:00−15se229860 0.0 101912
23 january, sun
sun2300:00−15sse11100100 0.0 10209
03:00−13ene22100100 0.0 102110
06:00−12ene2298100 0.0 102128
09:00−12ene2398100 0.0 102354
12:00−7ne4993100 0.0 1022222
15:00−5ne61391100 0.0 1022446
18:00−5ne71594100 0.3 1022487
21:00−4ne81494100 1.5 1021535